Flag for U.S.A. Weather past 2 weeks in Oklahoma City, Oklahoma, U.S.A.

Now
80 °F

Passing clouds.


Feels Like: 82 °F
Forecast: 77 / 98 °F
Wind: 13 mph from South

Location: Will Rogers World Airport

Current Time: Aug 22, 2014 at 8:45:37 AM

Latest Report: Aug 22, 2014 at 7:52 AM


Visibility: 10 mi

Pressure: 29.93 "Hg

Humidity: 62%

Dew point: 66 °F

Location of Oklahoma CityLocation

Historic Weather in Oklahoma City — Graph

°F

Oklahoma City temperature yesterday

Maximum temperature yesterday: 97 °F (at 3:52 PM)
Minimum temperature yesterday: 74 °F (at 6:52 AM)
Average temperature yesterday: 86 °F

Past Weeks' High & Low Weather Summary

 TemperatureHumidityPressure
High100 °F (Aug 18, 3:52 PM)90% (Aug 9, 6:52 AM)30.12 "Hg (Aug 9, 6:52 AM)
Low65 °F (Aug 13, 6:52 AM)25% (Aug 18, 4:52 PM)29.75 "Hg (Aug 18, 5:52 PM)
Average83 °F58%29.92 "Hg
* Reported Aug 7 6:52 AM — Aug 22 6:52 AM, Oklahoma City, Weather by CustomWeather, © 2014

Note: Actual official high and low records may vary slightly from our data, if they occured in-between our weather recording intervals... More about our weather records

Advertising

Oklahoma City weather history for previous 24 hours

 ConditionsComfort  
Time TempWeatherWind HumidityBarometerVisibility
6:52 AM
Aug 22
78 °FPassing clouds.9 mph62%29.93 "Hg10 mi
5:52 AM77 °FPassing clouds.12 mph64%29.91 "Hg10 mi
4:52 AM73 °FPassing clouds.13 mph76%29.90 "Hg10 mi
3:52 AM77 °FPassing clouds.10 mph66%29.90 "Hg10 mi
2:52 AM78 °FPassing clouds.8 mph64%29.90 "Hg10 mi
1:52 AM79 °FClear.10 mph65%29.89 "Hg10 mi
12:52 AM82 °FClear.12 mph56%29.88 "Hg10 mi
11:52 PM
Aug 21
84 °FClear.12 mph55%29.89 "Hg10 mi
10:52 PM84 °FClear.14 mph59%29.89 "Hg10 mi
9:52 PM86 °FClear.14 mph59%29.89 "Hg10 mi
8:52 PM88 °FPassing clouds.13 mph57%29.88 "Hg10 mi
7:52 PM91 °FSunny.17 mph50%29.86 "Hg10 mi
6:52 PM94 °FSunny.18 mph46%29.85 "Hg10 mi
5:52 PM96 °FPassing clouds.20 mph40%29.85 "Hg10 mi
4:52 PM97 °FScattered clouds.16 mph39%29.85 "Hg10 mi
3:52 PM97 °FScattered clouds.15 mph37%29.86 "Hg10 mi
2:52 PM96 °FScattered clouds.9 mph40%29.88 "Hg10 mi
1:52 PM95 °FScattered clouds.16 mph41%29.89 "Hg10 mi
12:52 PM94 °FPassing clouds.14 mph44%29.91 "Hg10 mi
11:52 AM91 °FSunny.16 mph50%29.93 "Hg10 mi
10:52 AM88 °FSunny.18 mph55%29.93 "Hg10 mi
9:52 AM86 °FSunny.18 mph59%29.93 "Hg10 mi
8:52 AM81 °FSunny.17 mph69%29.93 "Hg10 mi
Weather by CustomWeather, © 2014

See weather overviewHow to use our weather pages